Vertical_Velocity
-1 -2 -2 -5 -4 -3 -3 -3 -4 -5 -7 -10 -6 -2 -5 -5 0 1 -4 -4 1 3 4 5 3 3 0 -1 -2 -4 -2 -2 -2 3 1 -12 1 4 3 -13 7 0 1
-4 -5 -5 -3 -3 -2 -2 -5 -4 -4 -2 -0 2 -3 -2 4 -3 -6 2 -8 -2 1 1 2 2 1 1 -3 -0 0 1 -1 -1 1 5 3 -10 6 3 -10 -5 5 -0
-5 -1 -2 -4 -7 -7 -6 -3 -2 -3 -5 -5 -7 -6 -8 -7 -1 5 -2 5 -6 -3 2 -1 1 3 0 1 -2 2 1 -2 2 0 2 6 -5 -1 0 3 -3 -3 1
-11 -4 -4 -1 2 0 -2 -2 -1 -2 -2 -2 -4 -1 -1 -6 -12 -7 -7 -2 5 -10 -3 1 -0 -1 1 2 3 -0 -5 -1 2 -0 -1 3 2 -5 -15 -20 -3 1 -0
-9 -4 -2 -5 -4 -2 -1 -3 -4 -1 -0 -1 -1 -1 -1 1 -7 -5 -11 -10 -5 5 -16 -1 0 -3 -3 -0 -3 -0 2 1 0 2 -0 -2 -1 1 -15 33 2 -9 -2
2 -1 -0 -3 -4 -7 -7 -4 -1 2 -0 -1 -2 -3 -2 -4 7 10 -3 -9 -5 -15 4 3 -13 2 -3 -6 -6 1 2 2 2 1 0 2 -0 3 1 0 -2 -8 -24
0 2 -0 2 -3 -4 1 1 0 -1 1 -0 -3 2 -5 1 -3 -7 12 11 4 -10 -4 -15 3 5 -9 8 -6 -10 -1 1 -0 3 2 0 0 4 2 2 0 -0 33
-5 -8 -8 -3 -5 7 1 3 2 -3 0 3 -6 -3 -11 -5 -4 3 4 -1 16 26 -14 12 2 -4 7 -7 4 0 -4 -6 -0 -1 1 4 4 -2 1 1 2 1 1
-2 1 1 2 -0 4 2 1 -1 0 -11 -1 1 -2 -13 -14 1 8 -7 -1 7 -13 25 3 -6 13 1 3 -13 -1 6 4 -5 -2 -3 -5 1 5 0 -0 1 1 -1
-5 -2 -1 -7 -3 -5 0 -3 -0 -4 3 -7 6 8 7 4 0 -32 4 -2 -6 1 -5 10 23 5 40 5 -4 -4 -1 -2 6 3 -2 -2 -6 -2 5 2 4 4 5
1 -1 -1 4 2 -0 -2 -1 -0 -3 3 -2 -1 -9 6 1 12 -1 -22 -4 5 13 7 1 13 -8 11 -2 12 2 -2 1 -0 9 1 1 -2 -8 -7 1 1 -1 3
1 1 2 2 2 -2 0 -2 3 -9 -6 -4 -4 -2 -2 -6 -3 -0 -4 -2 -9 5 1 4 8 16 26 -3 7 4 2 3 -10 5 6 1 -3 -1 -3 -3 -3 1 1
1 3 0 -3 -4 -2 -2 -3 3 -2 -4 2 1 1 2 -2 -4 0 1 -10 -18 -4 0 -9 10 6 12 41 22 -1 21 7 -3 -0 3 3 6 -2 -1 1 -0 -1 -1
-6 -5 -5 1 -5 2 -3 -0 2 -0 3 2 -2 -3 -5 -1 2 -2 -2 -4 -13 -5 -5 1 15 -1 16 3 25 10 8 13 -11 -6 -1 -5 1 2 -2 -4 -3 -0 1
2 -3 2 0 1 -1 -3 -2 -1 3 0 2 3 1 -4 -1 1 3 -1 -1 0 -16 -2 12 -13 -4 2 8 4 27 3 15 -7 -13 -8 5 -2 3 2 1 1 0 0
5 2 -3 -1 -3 -7 -2 -3 -1 2 -2 -2 -1 -2 2 1 -2 -4 -1 -0 3 -4 -20 2 2 -3 2 4 9 2 -4 6 -4 -6 2 1 0 2 3 2 3 4 -0
-4 2 -3 -2 -2 -2 2 -1 1 1 1 2 2 1 1 5 8 2 3 -0 -3 0 -13 -0 -6 -1 0 5 1 12 -7 11 -4 1 4 -4 -3 1 1 2 1 4 5
-4 -7 -6 -6 -4 -2 -3 -2 -1 4 -2 1 -1 -0 1 4 8 8 5 8 8 3 -3 -2 2 0 -3 5 4 6 10 9 10 -5 1 -3 -5 -1 1 0 -1 0 -1
-6 -5 -5 -4 -3 -2 -3 -1 -2 -1 -5 -0 -1 -3 -2 -1 -2 -2 2 2 1 1 1 -2 -1 -2 -4 -4 1 4 4 0 2 2 2 2 -2 -3 -3 3 1 -2 -3
-3 -5 -1 -3 -2 -0 3 -1 -2 0 0 1 -1 2 3 3 2 5 -2 0 0 -0 2 1 2 1 1 1 -4 -1 -1 2 3 2 -1 -2 -1 1 -0 -4 2 4 -1
-3 -2 -3 -0 -1 -1 -5 -3 -0 2 1 -1 2 1 0 3 2 -0 2 4 -4 -3 4 -1 -1 -0 1 3 4 -1 -1 0 -3 2 -3 -7 1 1 0 0 1 -3 1
-4 -0 -3 -1 -2 -2 -0 -2 3 1 1 -3 -5 1 0 -0 5 8 -5 1 -2 -5 -3 -2 1 -1 -1 -0 -1 -2 -5 -2 -2 3 -5 -3 -8 -4 -2 -7 -1 -1 -2
-3 -3 -2 -1 -3 0 2 -1 2 3 -1 -1 -2 -3 -3 2 2 6 -6 -5 -1 1 0 0 0 -1 0 3 7 1 2 5 4 -2 -2 -5 -3 -3 0 7 -5 -5 1
-3 -3 -1 -2 2 5 3 -1 0 5 2 2 -0 -1 -3 1 4 3 -2 -1 1 1 -1 -1 -1 2 1 -0 -0 1 2 1 3 2 4 -9 1 0 -0 4 3 5 0
-1 -4 -2 3 2 3 2 2 -4 0 -1 1 1 2 -0 1 3 2 -3 -2 -1 -0 3 3 -2 -1 1 0 1 -3 0 -2 -2 0 3 -4 1 -3 -1 -0 -0 2 4
-2 -4 0 3 3 -1 -0 -2 -2 -1 -3 -3 2 2 3 -1 1 2 1 -1 -2 1 -3 1 2 2 3 3 2 -1 1 -2 1 -5 9 -2 -1 -1 -8 2 -2 -1 -0
Height
3161 3159 3157 3155 3152 3149 3145 3143 3140 3138 3135 3133 3131 3130 3129 3127 3125 3124 3119 3118 3118 3119 3119 3120 3121 3120 3122 3122 3123 3125 3126 3127 3128 3130 3132 3134 3139 3143 3147 3148 3151 3153 3155
3159 3156 3154 3151 3149 3146 3143 3140 3137 3134 3132 3129 3127 3124 3123 3123 3120 3117 3115 3113 3114 3113 3113 3112 3112 3113 3113 3115 3116 3118 3119 3121 3123 3124 3126 3129 3132 3137 3140 3143 3147 3148 3150
3154 3152 3150 3147 3144 3141 3138 3135 3132 3129 3125 3123 3120 3117 3114 3113 3112 3112 3111 3107 3106 3106 3105 3106 3105 3105 3106 3106 3108 3110 3112 3114 3116 3119 3120 3122 3127 3130 3133 3137 3141 3143 3146
3148 3147 3145 3142 3139 3136 3133 3130 3128 3125 3122 3118 3116 3113 3109 3106 3103 3100 3098 3099 3097 3097 3098 3097 3097 3098 3098 3099 3100 3101 3103 3106 3108 3110 3112 3115 3118 3122 3126 3129 3133 3136 3140
3143 3141 3138 3136 3133 3131 3128 3124 3120 3118 3114 3111 3109 3107 3105 3103 3100 3097 3093 3091 3089 3085 3082 3087 3087 3088 3089 3091 3092 3093 3095 3096 3099 3102 3104 3105 3108 3112 3116 3115 3123 3127 3132
3138 3133 3131 3128 3125 3122 3119 3115 3112 3109 3106 3103 3101 3098 3097 3097 3095 3092 3089 3087 3082 3080 3079 3072 3075 3076 3077 3080 3083 3084 3086 3088 3090 3091 3095 3097 3099 3103 3108 3111 3113 3119 3120
3131 3128 3124 3120 3118 3113 3109 3106 3103 3099 3097 3096 3091 3088 3086 3085 3083 3083 3082 3079 3076 3074 3070 3071 3068 3065 3068 3068 3069 3075 3077 3078 3081 3083 3085 3087 3090 3094 3097 3101 3104 3109 3107
3120 3119 3117 3110 3108 3103 3101 3098 3094 3090 3087 3085 3082 3079 3072 3071 3073 3073 3073 3072 3070 3068 3062 3057 3057 3058 3055 3056 3057 3063 3067 3070 3071 3074 3076 3078 3080 3083 3087 3090 3094 3097 3102
3114 3108 3105 3101 3097 3095 3092 3088 3084 3081 3075 3074 3073 3069 3063 3058 3056 3059 3060 3061 3063 3060 3053 3051 3046 3047 3045 3043 3044 3050 3057 3059 3062 3064 3066 3069 3071 3074 3078 3081 3083 3087 3092
3104 3100 3098 3092 3089 3083 3081 3076 3072 3068 3065 3061 3059 3056 3054 3050 3045 3039 3045 3046 3047 3049 3046 3044 3044 3037 3037 3034 3031 3035 3043 3048 3051 3053 3056 3059 3062 3065 3067 3071 3074 3077 3080
3094 3091 3087 3083 3078 3074 3069 3065 3059 3054 3051 3047 3043 3039 3039 3036 3035 3028 3023 3024 3029 3033 3035 3031 3029 3029 3025 3021 3021 3023 3026 3035 3040 3042 3044 3048 3052 3056 3058 3060 3063 3066 3070
3085 3081 3077 3071 3066 3060 3055 3050 3044 3039 3034 3031 3028 3025 3022 3019 3017 3014 3010 3010 3006 3011 3016 3017 3017 3017 3010 3012 3008 3010 3015 3019 3027 3031 3034 3036 3040 3045 3048 3049 3052 3056 3059
3076 3072 3065 3060 3053 3047 3041 3036 3032 3027 3022 3018 3015 3013 3011 3007 3006 3003 2998 2998 2994 2994 2995 3000 3002 3000 2997 2998 3003 3000 3004 3006 3011 3018 3022 3025 3028 3032 3036 3039 3041 3044 3047
3065 3060 3053 3047 3040 3035 3028 3024 3020 3015 3011 3008 3005 3002 3000 2999 2997 2994 2991 2988 2985 2982 2982 2985 2989 2987 2991 2989 2989 2992 2993 2993 2999 3006 3010 3014 3016 3020 3024 3028 3032 3034 3037
3056 3049 3043 3037 3030 3024 3017 3012 3008 3005 2999 2997 2994 2992 2990 2988 2986 2984 2983 2980 2977 2975 2974 2976 2975 2978 2979 2980 2982 2981 2985 2985 2985 2993 2997 2999 3004 3008 3012 3015 3020 3024 3027
3045 3039 3032 3026 3019 3013 3007 3002 2998 2994 2990 2987 2985 2983 2981 2978 2976 2975 2974 2972 2971 2969 2966 2967 2968 2968 2970 2972 2972 2973 2977 2977 2977 2980 2983 2987 2992 2996 3000 3003 3007 3011 3016
3034 3028 3021 3015 3008 3002 2997 2991 2988 2984 2980 2978 2976 2974 2973 2971 2969 2967 2965 2963 2962 2961 2959 2959 2959 2961 2962 2963 2965 2966 2966 2967 2969 2971 2971 2975 2980 2984 2989 2993 2996 3000 3004
3023 3015 3007 3002 2997 2992 2987 2983 2979 2975 2972 2969 2966 2964 2962 2961 2959 2958 2956 2955 2954 2953 2952 2950 2950 2951 2954 2956 2957 2958 2959 2961 2961 2962 2962 2964 2966 2971 2975 2979 2984 2988 2991
3011 3005 2999 2994 2990 2985 2980 2975 2971 2967 2962 2960 2957 2955 2952 2951 2949 2947 2945 2943 2943 2943 2942 2940 2940 2942 2942 2945 2947 2949 2950 2952 2954 2956 2956 2957 2958 2959 2962 2967 2970 2974 2978
3003 2997 2991 2987 2982 2978 2973 2967 2963 2960 2955 2951 2948 2945 2942 2940 2939 2937 2934 2932 2932 2931 2931 2931 2931 2932 2934 2936 2938 2940 2942 2944 2945 2946 2948 2949 2949 2949 2951 2953 2959 2961 2965
2996 2990 2986 2981 2976 2971 2964 2960 2956 2951 2946 2941 2937 2934 2931 2929 2927 2925 2924 2922 2921 2920 2920 2920 2921 2922 2924 2927 2929 2930 2930 2932 2933 2935 2936 2937 2940 2940 2941 2942 2944 2948 2952
2990 2985 2979 2975 2969 2964 2958 2952 2947 2942 2936 2930 2924 2921 2918 2916 2915 2914 2911 2910 2909 2908 2908 2909 2910 2910 2912 2916 2917 2919 2919 2921 2923 2926 2926 2928 2929 2932 2933 2933 2934 2935 2936
2985 2979 2974 2968 2963 2957 2950 2943 2937 2930 2923 2918 2913 2908 2906 2904 2902 2901 2899 2898 2897 2898 2898 2899 2898 2900 2901 2905 2906 2907 2910 2910 2911 2913 2916 2916 2920 2921 2923 2925 2924 2923 2926
2979 2973 2968 2962 2957 2951 2943 2933 2926 2920 2913 2907 2902 2898 2895 2892 2891 2890 2887 2887 2888 2888 2888 2887 2887 2891 2890 2893 2893 2895 2896 2896 2899 2902 2904 2902 2908 2909 2911 2913 2914 2916 2915
2973 2967 2961 2957 2951 2943 2934 2924 2917 2909 2902 2897 2892 2889 2885 2883 2881 2879 2878 2877 2877 2878 2878 2878 2879 2879 2880 2882 2883 2884 2885 2886 2887 2890 2893 2892 2896 2896 2898 2899 2901 2903 2905
2967 2960 2956 2951 2943 2934 2925 2916 2908 2901 2894 2889 2884 2880 2877 2874 2872 2871 2870 2869 2868 2869 2869 2870 2871 2871 2872 2873 2875 2875 2876 2877 2879 2879 2884 2883 2884 2886 2885 2888 2890 2892 2894